Overview Statistics Trail Chart Weather Telemetry Raw packets
 

This is the latest recevied weather packets stored in our database for station/object SV9TNF-52. If no packets are shown the sender has not sent any weather packets the latest 10 day(s).

<< 3 4 5 6 7 8 9 >>
Time Temp. Humidity Pressure Rain* Wind** Luminosity Snow
1788632570 24.44° C 68% 1022.7 hPa 0 mm 3.13 m/s, 252° - -
1788632270 24.44° C 69% 1022.7 hPa 0 mm 4.02 m/s, 238° - -
1788631970 24.44° C 68% 1022.7 hPa 0 mm 3.58 m/s, 221° - -
1788631669 24.44° C 68% 1022.7 hPa 0 mm 5.81 m/s, 258° - -
1788631370 24.44° C 68% 1022.7 hPa 0 mm 2.24 m/s, 232° - -
1788631069 25° C 67% 1022.7 hPa 0 mm 3.58 m/s, 266° - -
1788630769 25° C 67% 1022.7 hPa 0 mm 5.81 m/s, 275° - -
1788630469 25.56° C 67% 1022.7 hPa 0 mm 3.13 m/s, 238° - -
1788630169 25.56° C 67% 1022.7 hPa 0 mm 7.15 m/s, 229° - -
1788629869 25.56° C 66% 1022.7 hPa 0 mm 3.13 m/s, 209° - -
1788629569 26.11° C 66% 1022.7 hPa 0 mm 3.58 m/s, 243° - -
1788629269 26.11° C 66% 1022.7 hPa 0 mm 3.13 m/s, 264° - -
1788628969 26.11° C 66% 1022.4 hPa 0 mm 2.24 m/s, 278° - -
1788628669 26.11° C 67% 1022.4 hPa 0 mm 3.58 m/s, 251° - -
1788628368 26.11° C 67% 1022.4 hPa 0 mm 2.68 m/s, 321° - -
1788628068 26.67° C 66% 1022.4 hPa 0 mm 3.13 m/s, 247° - -
1788627802 26.67° C 66% 1022.4 hPa 0 mm 4.02 m/s, 255° - -
1788627468 26.67° C 66% 1022.4 hPa 0 mm 6.26 m/s, 325° - -
1788627168 26.67° C 65% 1022.4 hPa 0 mm 5.36 m/s, 172° - -
1788626868 26.67° C 65% 1022.4 hPa 0 mm 5.81 m/s, 270° - -
1788626568 26.67° C 64% 1022.4 hPa 0 mm 3.58 m/s, 261° - -
1788626268 26.67° C 64% 1022.4 hPa 0 mm 7.6 m/s, 223° - -
1788625974 26.67° C 64% 1022.4 hPa 0 mm 6.26 m/s, 336° - -
1788625668 27.22° C 63% 1022.4 hPa 0 mm 1.34 m/s, 171° - -
1788625367 27.78° C 62% 1022.4 hPa 0 mm 4.92 m/s, 234° - -

* Rain latest hour (hover to see other rain measurements)
** Current wind speed in m/s (hover to see current wind gust speed)